ASIASTAR

Last updated on May 23, 2019, 3:05 a.m. UTC

1 26107U 00016A   19142.48457356 -.00000341  00000-0  00000+0 0  9990
2 26107   3.1582  79.3423 0005405 348.0524  91.8910  1.00271471 70250
UTC
Height (km)
Latitude
Longitude
Inclination
Orbital Period
UTC large
Height (km)
Speed (km/s)
/
Latitude / Longitude
Inclination (degrees)
Orbital Period (minutes)
Azimuth
Elevation
Range (km)
Doppler Factor
iOS Compass Heading
iOS Angle

Next 30 passes for location: Hong Kong

Rise time Rise Azimuth (degrees) Set time Set Azimuth (degrees) Duration Max altitude (degrees)

No matching passes for this satellites